Orbital Elements at Epoch 2459000.5 (2020-May-31.0) TDB
Reference: JPL 25 (heliocentric ecliptic J2000)
Element | Value | Uncertainty (1-sigma) | Units |
e | .1247100823709638 | 3.2974e-08 | |
a | 2.263250382826045 | 7.6072e-09 | au |
q | 1.981000241157694 | 7.7031e-08 | au |
i | 4.605940802342966 | 4.3221e-06 | deg |
node | 322.8786939394386 | 4.9541e-05 | deg |
peri | 108.5065499885329 | 5.4009e-05 | deg |
M | 22.04041749799079 | 1.9918e-05 | deg |
tp | 2458924.359688947304 (2020-Mar-15.85968895) | 6.8816e-05 | TDB |
period | 1243.64758432863 3.40 | 6.2702e-06 1.717e-08 | d yr |
n | .2894710724616911 | 1.4595e-09 | deg/d |
Q | 2.545500524494397 | 8.5559e-09 | au |
|
| | Orbit Determination Parameters
Additional Information
|